IRIDIUM 33 DEB

Satellite information

Favourite Embed

Satellite Type and Status

DEBRISIN ORBIT

Key statistics

Satellite IRIDIUM 33 DEB at a glance.

Uptime

10159

Days in orbit

Revolutions

≈ 15.0

Per day

Orbit

LEO

Low Earth Orbit

Inclination

86.3

Latest

Satellite identification and parameters

Extended collection of information and parameters for IRIDIUM 33 DEB.

Object identification

Identified? True

Debris? True

Object name: IRIDIUM 33 DEB

International designator: 1997-051AC

Object number (NORAD): 33859

Object ID (CCSDS): 33859

Country: UNITED STATES OF AMERICA (US)

Current information (Y/N): Y

RCS size: SMALL

Orbital parameters

Period: 95.9 minutes

Inclination: 86.2947 deg

SMA: 6940.191 km

Apoapsis: 572.471 km

Periapsis: 551.642 km

RAAN: 75.7396 deg

Eccentricy: 0.0015006

Argument of periapsis: 194.0214 deg

Mean anomaly: 166.0605 deg

Mean motion: 15.01570116 rev/day

Mean motion (dot): 0.0003881 rev/day2

B* drag term: 0.0029749 1/REarth

Two-line elements (TLE)

Creation date: July 8, 2025, 2:27 a.m.

Reference frame: TEME

Reference center: EARTH

Epoch: July 7, 2025, 4:56 p.m. UTC

TLE line 0: 0 IRIDIUM 33 DEB

TLE line 1: 1 33859U 97051AC 25188.70602362 .00038810 00000-0 29749-2 0 9993

TLE line 2: 2 33859 86.2947 75.7396 0015006 194.0214 166.0605 15.01570116861686

Live tracking on map

Real-time ground track for satellite IRIDIUM 33 DEB.

In-orbit conjunctions

A list of the most updated potential collisions computed for object IRIDIUM 33 DEB.

Target Orbit TCA Probability of collision Miss distance Type
CZ-6A DEB LEO 2025-01-03 22:27:59 0.0001063265 178.0 (m) DEBRIS
FENGYUN 1C DEB SSO 2024-12-03 21:32:56 0.0001695337 77.0 (m) DEBRIS
FENGYUN 1C DEB SSO 2024-11-10 13:09:15 0.0001292723 605.0 (m) DEBRIS

Associated space launch

Iridium provides global mobile telecommunications services using a constellation of 66 low earth orbit satellites in a 86.4° inclined orbit. Although 77 satellites were originally envisioned for the system and spawned the name based on the 77th element in the periodic table, the system has been scaled back. Motorola's Satellite Communications Group designed and manufactured the Iridium satellites with Lockheed Martin providing the LM-700A spacecraft buses.

IRIDIUM 33 DEB was lifted into orbit during the mission ‘Proton-K/17S40 | Iridium 27 to 33’, on board a Proton-K/17S40 space rocket.

The launch took place on Sept. 14, 1997, 1:36 a.m. from 81/23 (81L).

For more information about the launch, click the button.

Launch to space Proton-K/17S40 | Iridium 27 to 33
Proton-K/17S40 | Iridium 27 to 33

Agency: N/A

Status: Launch Successful

Launch date: Sept. 14, 1997, 1:36 a.m. UTC

Rocket: Proton-K/17S40

Launch pad: 81/23 (81L)

Location: Baikonur Cosmodrome, Republic of Kazakhstan

...

Latest news about this satellite

There are no fresh news available about this satellite. Check back as we update our databases every day.


Newsletter sign-up

Weekly statistics, charts and insights to help you stay on top of the space industry.